Time,TemperatureF,DewpointF,PressureIn,WindDirection,WindDirectionDegrees,WindSpeedMPH,WindSpeedGustMPH,Humidity,HourlyPrecipIn,Conditions,Clouds,dailyrainin,SoftwareType,DateUTC
2013-04-30 00:11:00,57.2,39.0,30.24,SE,146,0.0,2.0,51,0.00,,,0.00,weatherlink.com 1.10,2013-04-30 04:11:00,
2013-04-30 00:26:00,56.9,37.0,30.24,SSE,165,2.0,3.0,48,0.00,,,0.00,weatherlink.com 1.10,2013-04-30 04:26:00,
2013-04-30 00:41:00,56.8,35.0,30.24,South,179,0.0,3.0,45,0.00,,,0.00,weatherlink.com 1.10,2013-04-30 04:41:00,
2013-04-30 00:56:00,56.6,34.0,30.24,SSW,193,2.0,3.0,43,0.00,,,0.00,weatherlink.com 1.10,2013-04-30 04:56:00,
2013-04-30 01:11:00,56.4,33.0,30.24,SW,225,1.0,3.0,42,0.00,,,0.00,weatherlink.com 1.10,2013-04-30 05:11:00,
2013-04-30 01:26:00,56.3,32.0,30.24,SW,224,2.0,5.0,40,0.00,,,0.00,weatherlink.com 1.10,2013-04-30 05:26:00,
2013-04-30 01:42:00,56.2,31.0,30.24,South,173,1.0,4.0,39,0.00,,,0.00,weatherlink.com 1.10,2013-04-30 05:42:00,
2013-04-30 01:57:00,56.0,32.0,30.24,South,169,0.0,3.0,40,0.00,,,0.00,weatherlink.com 1.10,2013-04-30 05:57:00,
2013-04-30 02:12:00,55.5,32.0,30.24,SSW,208,0.0,2.0,41,0.00,,,0.00,weatherlink.com 1.10,2013-04-30 06:12:00,
2013-04-30 02:27:00,55.4,31.0,30.24,South,181,0.0,2.0,40,0.00,,,0.00,weatherlink.com 1.10,2013-04-30 06:27:00,
2013-04-30 02:42:00,55.3,28.0,30.25,SSE,159,1.0,5.0,35,0.00,,,0.00,weatherlink.com 1.10,2013-04-30 06:42:00,
2013-04-30 02:57:00,55.2,28.0,30.25,South,191,0.0,5.0,35,0.00,,,0.00,weatherlink.com 1.10,2013-04-30 06:57:00,
2013-04-30 03:12:00,54.9,28.0,30.25,SSE,158,1.0,4.0,35,0.00,,,0.00,weatherlink.com 1.10,2013-04-30 07:12:00,
2013-04-30 03:27:00,54.9,28.0,30.25,South,181,1.0,4.0,36,0.00,,,0.00,weatherlink.com 1.10,2013-04-30 07:27:00,
2013-04-30 03:42:00,54.7,29.0,30.26,SSW,198,1.0,2.0,38,0.00,,,0.00,weatherlink.com 1.10,2013-04-30 07:42:00,
2013-04-30 03:57:00,54.4,29.0,30.26,South,171,0.0,2.0,38,0.00,,,0.00,weatherlink.com 1.10,2013-04-30 07:57:00,
2013-04-30 04:12:00,54.1,31.0,30.27,South,170,0.0,1.0,41,0.00,,,0.00,weatherlink.com 1.10,2013-04-30 08:12:00,
2013-04-30 04:27:00,53.6,32.0,30.27,South,172,0.0,0.0,44,0.00,,,0.00,weatherlink.com 1.10,2013-04-30 08:27:00,
2013-04-30 04:42:00,53.3,32.0,30.27,NW,321,0.0,1.0,45,0.00,,,0.00,weatherlink.com 1.10,2013-04-30 08:42:00,
2013-04-30 04:57:00,52.8,34.0,30.27,NW,319,0.0,1.0,49,0.00,,,0.00,weatherlink.com 1.10,2013-04-30 08:57:00,
2013-04-30 05:12:00,52.5,34.0,30.27,NE,45,0.0,1.0,50,0.00,,,0.00,weatherlink.com 1.10,2013-04-30 09:12:00,
2013-04-30 05:27:00,52.4,35.0,30.28,NE,45,0.0,1.0,51,0.00,,,0.00,weatherlink.com 1.10,2013-04-30 09:27:00,
2013-04-30 05:42:00,52.2,35.0,30.28,NE,45,0.0,1.0,52,0.00,,,0.00,weatherlink.com 1.10,2013-04-30 09:42:00,
2013-04-30 05:57:00,52.1,35.0,30.28,North,357,0.0,2.0,53,0.00,,,0.00,weatherlink.com 1.10,2013-04-30 09:57:00,
2013-04-30 06:12:00,52.1,35.0,30.28,North,356,0.0,1.0,52,0.00,,,0.00,weatherlink.com 1.10,2013-04-30 10:12:00,
2013-04-30 06:27:00,52.1,36.0,30.28,North,357,0.0,1.0,54,0.00,,,0.00,weatherlink.com 1.10,2013-04-30 10:27:00,
2013-04-30 06:42:00,52.2,37.0,30.29,North,350,0.0,1.0,57,0.00,,,0.00,weatherlink.com 1.10,2013-04-30 10:42:00,
2013-04-30 06:57:00,52.3,37.0,30.29,NNW,330,0.0,1.0,57,0.00,,,0.00,weatherlink.com 1.10,2013-04-30 10:57:00,
2013-04-30 07:12:00,52.8,38.0,30.29,NW,319,0.0,1.0,57,0.00,,,0.00,weatherlink.com 1.10,2013-04-30 11:12:00,
2013-04-30 07:27:00,53.4,38.0,30.30,NE,34,0.0,1.0,57,0.00,,,0.00,weatherlink.com 1.10,2013-04-30 11:27:00,
2013-04-30 07:42:00,54.5,38.0,30.31,SSW,205,0.0,2.0,55,0.00,,,0.00,weatherlink.com 1.10,2013-04-30 11:42:00,
2013-04-30 07:58:00,55.8,38.0,30.30,South,173,3.0,4.0,51,0.00,,,0.00,weatherlink.com 1.10,2013-04-30 11:58:00,
2013-04-30 08:13:00,57.5,34.0,30.31,West,263,2.0,4.0,41,0.00,,,0.00,weatherlink.com 1.10,2013-04-30 12:13:00,
2013-04-30 08:28:00,57.9,35.0,30.31,ENE,72,2.0,4.0,42,0.00,,,0.00,weatherlink.com 1.10,2013-04-30 12:28:00,
2013-04-30 08:43:00,58.1,32.0,30.30,WSW,255,2.0,4.0,38,0.00,,,0.00,weatherlink.com 1.10,2013-04-30 12:43:00,
2013-04-30 08:58:00,59.4,34.0,30.31,WNW,299,1.0,4.0,38,0.00,,,0.00,weatherlink.com 1.10,2013-04-30 12:58:00,
2013-04-30 09:13:00,60.1,31.0,30.31,West,260,2.0,3.0,34,0.00,,,0.00,weatherlink.com 1.10,2013-04-30 13:13:00,
2013-04-30 09:28:00,60.6,31.0,30.31,SSE,164,2.0,4.0,33,0.00,,,0.00,weatherlink.com 1.10,2013-04-30 13:28:00,
2013-04-30 09:43:00,61.6,29.0,30.30,West,267,0.0,4.0,29,0.00,,,0.00,weatherlink.com 1.10,2013-04-30 13:43:00,
2013-04-30 09:58:00,63.0,32.0,30.30,ENE,57,3.0,5.0,31,0.00,,,0.00,weatherlink.com 1.10,2013-04-30 13:58:00,
2013-04-30 10:13:00,64.1,31.0,30.30,SSE,152,3.0,8.0,29,0.00,,,0.00,weatherlink.com 1.10,2013-04-30 14:13:00,
2013-04-30 10:28:00,64.7,32.0,30.30,West,276,0.0,7.0,30,0.00,,,0.00,weatherlink.com 1.10,2013-04-30 14:28:00,
2013-04-30 10:43:00,66.0,31.0,30.30,SW,214,4.0,10.0,27,0.00,,,0.00,weatherlink.com 1.10,2013-04-30 14:43:00,
2013-04-30 10:58:00,66.9,34.0,30.29,SSW,203,3.0,4.0,30,0.00,,,0.00,weatherlink.com 1.10,2013-04-30 14:58:00,
2013-04-30 11:13:00,67.2,33.0,30.29,SW,224,1.0,6.0,28,0.00,,,0.00,weatherlink.com 1.10,2013-04-30 15:13:00,
2013-04-30 11:28:00,67.3,32.0,30.29,North,9,3.0,6.0,27,0.00,,,0.00,weatherlink.com 1.10,2013-04-30 15:28:00,
2013-04-30 11:43:00,68.2,33.0,30.28,East,101,2.0,9.0,27,0.00,,,0.00,weatherlink.com 1.10,2013-04-30 15:43:00,
2013-04-30 11:58:00,68.5,36.0,30.28,SSW,198,3.0,7.0,30,0.00,,,0.00,weatherlink.com 1.10,2013-04-30 15:58:00,
2013-04-30 12:13:00,68.4,33.0,30.27,East,82,4.0,8.0,27,0.00,,,0.00,weatherlink.com 1.10,2013-04-30 16:13:00,
2013-04-30 12:28:00,69.8,37.0,30.27,SE,145,2.0,7.0,30,0.00,,,0.00,weatherlink.com 1.10,2013-04-30 16:28:00,
2013-04-30 12:43:00,70.2,35.0,30.26,West,281,3.0,7.0,28,0.00,,,0.00,weatherlink.com 1.10,2013-04-30 16:43:00,
2013-04-30 12:58:00,70.7,36.0,30.27,South,179,5.0,7.0,28,0.00,,,0.00,weatherlink.com 1.10,2013-04-30 16:58:00,
2013-04-30 13:13:00,70.8,38.0,30.26,ESE,103,3.0,7.0,30,0.00,,,0.00,weatherlink.com 1.10,2013-04-30 17:13:00,
2013-04-30 13:28:00,71.3,36.0,30.26,SE,137,1.0,9.0,28,0.00,,,0.00,weatherlink.com 1.10,2013-04-30 17:28:00,
2013-04-30 13:43:00,71.6,38.0,30.26,SW,215,1.0,9.0,29,0.00,,,0.00,weatherlink.com 1.10,2013-04-30 17:43:00,
2013-04-30 13:58:00,73.0,40.0,30.25,ESE,111,1.0,8.0,30,0.00,,,0.00,weatherlink.com 1.10,2013-04-30 17:58:00,
2013-04-30 14:13:00,73.7,39.0,30.25,South,173,2.0,8.0,29,0.00,,,0.00,weatherlink.com 1.10,2013-04-30 18:13:00,
2013-04-30 14:28:00,73.5,39.0,30.25,SSE,167,4.0,8.0,29,0.00,,,0.00,weatherlink.com 1.10,2013-04-30 18:28:00,
2013-04-30 14:43:00,73.5,39.0,30.25,SSW,193,3.0,9.0,29,0.00,,,0.00,weatherlink.com 1.10,2013-04-30 18:43:00,
2013-04-30 14:58:00,74.1,39.0,30.24,South,171,3.0,7.0,28,0.00,,,0.00,weatherlink.com 1.10,2013-04-30 18:58:00,
2013-04-30 15:13:00,73.7,38.0,30.23,West,280,2.0,5.0,27,0.00,,,0.00,weatherlink.com 1.10,2013-04-30 19:13:00,
2013-04-30 15:28:00,74.9,40.0,30.23,South,181,4.0,7.0,28,0.00,,,0.00,weatherlink.com 1.10,2013-04-30 19:28:00,
2013-04-30 15:44:00,74.6,38.0,30.23,NNW,345,0.0,6.0,27,0.00,,,0.00,weatherlink.com 1.10,2013-04-30 19:44:00,
2013-04-30 15:59:00,74.6,38.0,30.23,WSW,245,3.0,9.0,27,0.00,,,0.00,weatherlink.com 1.10,2013-04-30 19:59:00,
2013-04-30 16:14:00,74.3,38.0,30.23,West,278,2.0,7.0,27,0.00,,,0.00,weatherlink.com 1.10,2013-04-30 20:14:00,
2013-04-30 16:29:00,73.9,38.0,30.23,NW,316,2.0,6.0,27,0.00,,,0.00,weatherlink.com 1.10,2013-04-30 20:29:00,
2013-04-30 16:44:00,74.1,38.0,30.23,SE,139,2.0,5.0,27,0.00,,,0.00,weatherlink.com 1.10,2013-04-30 20:44:00,
2013-04-30 16:59:00,75.0,38.0,30.23,ESE,110,1.0,4.0,26,0.00,,,0.00,weatherlink.com 1.10,2013-04-30 20:59:00,
2013-04-30 17:14:00,75.3,39.0,30.23,SSW,207,2.0,5.0,27,0.00,,,0.00,weatherlink.com 1.10,2013-04-30 21:14:00,
2013-04-30 17:29:00,73.9,38.0,30.23,South,177,0.0,3.0,27,0.00,,,0.00,weatherlink.com 1.10,2013-04-30 21:29:00,
2013-04-30 17:44:00,73.5,38.0,30.23,SSW,204,2.0,3.0,28,0.00,,,0.00,weatherlink.com 1.10,2013-04-30 21:44:00,
2013-04-30 17:59:00,72.7,38.0,30.23,South,183,0.0,4.0,28,0.00,,,0.00,weatherlink.com 1.10,2013-04-30 21:59:00,
2013-04-30 18:14:00,72.1,40.0,30.24,SW,214,0.0,2.0,31,0.00,,,0.00,weatherlink.com 1.10,2013-04-30 22:14:00,
2013-04-30 18:29:00,71.3,40.0,30.24,WNW,287,0.0,1.0,32,0.00,,,0.00,weatherlink.com 1.10,2013-04-30 22:29:00,
2013-04-30 18:44:00,70.6,42.0,30.24,West,276,0.0,1.0,35,0.00,,,0.00,weatherlink.com 1.10,2013-04-30 22:44:00,
2013-04-30 18:59:00,69.5,44.0,30.24,West,275,0.0,1.0,40,0.00,,,0.00,weatherlink.com 1.10,2013-04-30 22:59:00,
2013-04-30 19:14:00,68.3,44.0,30.24,NW,311,0.0,2.0,42,0.00,,,0.00,weatherlink.com 1.10,2013-04-30 23:14:00,
2013-04-30 19:29:00,67.0,45.0,30.25,NW,311,0.0,1.0,45,0.00,,,0.00,weatherlink.com 1.10,2013-04-30 23:29:00,
2013-04-30 19:44:00,65.7,44.0,30.25,NW,311,0.0,1.0,46,0.00,,,0.00,weatherlink.com 1.10,2013-04-30 23:44:00,
2013-04-30 19:59:00,64.3,46.0,30.25,NW,311,0.0,1.0,51,0.00,,,0.00,weatherlink.com 1.10,2013-04-30 23:59:00,
2013-04-30 20:14:00,62.4,45.0,30.25,NW,307,0.0,1.0,54,0.00,,,0.00,weatherlink.com 1.10,2013-05-01 00:14:00,
2013-04-30 20:29:00,60.8,45.0,30.26,NW,308,2.0,2.0,56,0.00,,,0.00,weatherlink.com 1.10,2013-05-01 00:29:00,
2013-04-30 20:44:00,59.4,43.0,30.27,NW,304,1.0,1.0,55,0.00,,,0.00,weatherlink.com 1.10,2013-05-01 00:44:00,
2013-04-30 20:59:00,58.0,43.0,30.27,NNW,328,1.0,1.0,58,0.00,,,0.00,weatherlink.com 1.10,2013-05-01 00:59:00,
2013-04-30 21:14:00,57.9,42.0,30.29,NW,308,1.0,4.0,56,0.00,,,0.00,weatherlink.com 1.10,2013-05-01 01:14:00,
2013-04-30 21:29:00,59.6,39.0,30.30,ESE,121,2.0,7.0,46,0.00,,,0.00,weatherlink.com 1.10,2013-05-01 01:29:00,
2013-04-30 21:44:00,60.0,36.0,30.30,NNE,25,1.0,2.0,41,0.00,,,0.00,weatherlink.com 1.10,2013-05-01 01:44:00,
2013-04-30 21:59:00,58.6,38.0,30.30,NW,321,1.0,3.0,47,0.00,,,0.00,weatherlink.com 1.10,2013-05-01 01:59:00,
2013-04-30 22:14:00,57.0,37.0,30.31,West,281,0.0,2.0,48,0.00,,,0.00,weatherlink.com 1.10,2013-05-01 02:14:00,
2013-04-30 22:29:00,55.0,39.0,30.32,West,264,0.0,1.0,55,0.00,,,0.00,weatherlink.com 1.10,2013-05-01 02:29:00,
2013-04-30 22:44:00,53.9,38.0,30.32,WNW,282,0.0,3.0,56,0.00,,,0.00,weatherlink.com 1.10,2013-05-01 02:44:00,
2013-04-30 22:59:00,52.6,38.0,30.32,NW,321,1.0,2.0,59,0.00,,,0.00,weatherlink.com 1.10,2013-05-01 02:59:00,
2013-04-30 23:14:00,52.6,37.0,30.33,NW,304,0.0,2.0,56,0.00,,,0.00,weatherlink.com 1.10,2013-05-01 03:14:00,
2013-04-30 23:29:00,52.5,36.0,30.33,WNW,290,0.0,4.0,54,0.00,,,0.00,weatherlink.com 1.10,2013-05-01 03:29:00,
2013-04-30 23:44:00,51.2,37.0,30.33,WNW,297,1.0,3.0,58,0.00,,,0.00,weatherlink.com 1.10,2013-05-01 03:44:00,